This demonstration page uses our WeatherBlox Daily Observations layout. Learn more.

Hourly Observations for June 9, 2019

Temp ( °F °C ) Dew Point ( °F °C ) Humidity (%) Winds ( mph kmh ) Pressure ( in mb ) Visibility ( mi km ) Precip ( " mm )
12:15 am 00:15 Mostly Cloudy 72 22 54 12 53 53 E 6 9 30.18 1022 10 16.09344 0 0
12:35 am 00:35 Cloudy 72 22 54 12 53 53 E 6 9 30.18 1022 10 16.09344 0 0
12:55 am 00:55 Cloudy 72 22 55 13 57 57 E 5 7 30.18 1022 10 16.09344 0 0
1:15 am 01:15 Cloudy 72 22 55 13 57 57 ENE 5 7 30.18 1022 10 16.09344 0 0
1:35 am 01:35 Cloudy 72 22 55 13 57 57 ENE 5 7 30.18 1022 10 16.09344 0 0
1:55 am 01:55 Cloudy 70 21 55 13 60 60 ENE 5 7 30.18 1022 10 16.09344 0 0
2:15 am 02:15 Cloudy 70 21 55 13 60 60 E 8 13 30.18 1022 10 16.09344 0 0
2:35 am 02:35 Cloudy 70 21 55 13 60 60 ENE 6 9 30.18 1022 10 16.09344 0 0
2:55 am 02:55 Cloudy 70 21 57 14 64 64 E 7 11 30.15 1021 10 16.09344 0 0
3:15 am 03:15 Cloudy 70 21 59 15 69 69 ESE 7 11 30.15 1021 10 16.09344 0 0
3:35 am 03:35 Cloudy 70 21 59 15 69 69 ENE 6 9 30.15 1021 10 16.09344 0 0
3:55 am 03:55 Cloudy 70 21 57 14 64 64 NE 7 11 30.15 1021 10 16.09344 0 0
4:15 am 04:15 Cloudy 70 21 59 15 69 69 NE 7 11 30.15 1021 10 16.09344 0 0
4:35 am 04:35 Cloudy 70 21 59 15 69 69 NE 8 13 30.15 1021 10 16.09344 0 0
4:55 am 04:55 Cloudy 70 21 59 15 69 69 ENE 6 9 30.15 1021 10 16.09344 0 0
5:15 am 05:15 Mostly Cloudy 68 20 59 15 73 73 ENE 6 9 30.15 1021 10 16.09344 0 0
5:35 am 05:35 Cloudy 68 20 59 15 73 73 ENE 5 7 30.15 1021 10 16.09344 0 0
5:55 am 05:55 Cloudy 68 20 59 15 73 73 NE 8 13 30.15 1021 10 16.09344 0 0
6:15 am 06:15 Cloudy 68 20 59 15 73 73 NE 7 11 30.18 1022 10 16.09344 0 0
6:35 am 06:35 Cloudy 68 20 59 15 73 73 NE 8 13 30.18 1022 10 16.09344 0 0
6:55 am 06:55 Cloudy 68 20 61 16 78 78 NE 8 13 30.18 1022 10 16.09344 0 0
7:15 am 07:15 Cloudy 68 20 61 16 78 78 NE 7 11 30.18 1022 10 16.09344 0 0
7:35 am 07:35 Cloudy 68 20 61 16 78 78 NE 7 11 30.18 1022 10 16.09344 0 0
7:55 am 07:55 Cloudy 68 20 61 16 78 78 NE 9 15 30.21 1023 10 16.09344 0 0
8:15 am 08:15 Cloudy 68 20 63 17 83 83 NE 8 13 30.21 1023 10 16.09344 0 0
8:35 am 08:35 Cloudy 68 20 63 17 83 83 NE 10 17 30.21 1023 10 16.09344 0 0
8:55 am 08:55 Cloudy 68 20 63 17 83 83 NE 12 19 30.21 1023 10 16.09344 0 0
9:15 am 09:15 Cloudy 70 21 63 17 78 78 NE 9 15 30.21 1023 10 16.09344 0 0
9:35 am 09:35 Cloudy 70 21 63 17 78 78 NE 5 7 30.21 1023 10 16.09344 0 0
9:55 am 09:55 Cloudy 70 21 64 18 83 83 NE 9 15 30.21 1023 10 16.09344 0 0
10:15 am 10:15 Cloudy 72 22 64 18 78 78 ENE 12 19 30.18 1022 10 16.09344 0 0
10:35 am 10:35 Cloudy 73 23 64 18 74 74 ENE 12 19 30.18 1022 10 16.09344 0 0
10:55 am 10:55 Cloudy 73 23 64 18 74 74 ENE 13 20 30.18 1022 10 16.09344 0 0
11:15 am 11:15 Cloudy 77 25 66 19 69 69 E 12 19 30.18 1022 10 16.09344 0 0
11:35 am 11:35 Cloudy 73 23 66 19 78 78 ENE 8 13 30.18 1022 10 16.09344 0 0
11:55 am 11:55 Cloudy 75 24 66 19 74 74 E 6 9 30.18 1022 10 16.09344 0 0
12:15 pm 12:15 Cloudy 73 23 68 20 83 83 E 8 13 30.18 1022 10 16.09344 0 0
12:35 pm 12:35 Cloudy 72 22 68 20 88 88 E 7 11 30.18 1022 5 8.04672 0 0
12:55 pm 12:55 Cloudy 70 21 68 20 94 94 ENE 6 9 30.18 1022 7 11.265408 0 0
1:15 pm 13:15 Cloudy 70 21 70 21 100 100 ENE 10 17 30.18 1022 4 6.437376 0 0
1:35 pm 13:35 Cloudy 70 21 68 20 94 94 E 12 19 30.18 1022 7 11.265408 0 0
1:55 pm 13:55 Cloudy 70 21 68 20 94 94 NE 13 20 30.18 1022 10 16.09344 0 0
2:15 pm 14:15 Cloudy 70 21 68 20 94 94 E 8 13 30.18 1022 10 16.09344 0 0
2:35 pm 14:35 Cloudy 72 22 68 20 88 88 ENE 13 20 30.18 1022 10 16.09344 0 0
2:55 pm 14:55 Cloudy 72 22 66 19 83 83 ENE 10 17 30.15 1021 10 16.09344 0 0
3:15 pm 15:15 Cloudy 72 22 66 19 83 83 E 8 13 30.15 1021 10 16.09344 0 0
3:35 pm 15:35 Cloudy 72 22 66 19 83 83 E 12 19 30.15 1021 10 16.09344 0 0
3:55 pm 15:55 Cloudy 70 21 64 18 83 83 ENE 13 20 30.15 1021 10 16.09344 0 0
4:15 pm 16:15 Cloudy 70 21 64 18 83 83 ENE 13 20 30.15 1021 10 16.09344 0 0
4:35 pm 16:35 Cloudy 70 21 64 18 83 83 E 9 15 30.15 1021 10 16.09344 0 0
4:55 pm 16:55 Cloudy 70 21 66 19 88 88 E 9 15 30.15 1021 10 16.09344 0 0
5:15 pm 17:15 Cloudy 70 21 66 19 88 88 ENE 16 26 30.15 1021 10 16.09344 0 0
5:35 pm 17:35 Cloudy 68 20 66 19 94 94 ENE 9 15 30.15 1021 5 8.04672 0 0
5:55 pm 17:55 Cloudy 68 20 64 18 88 88 ENE 6 9 30.15 1021 4 6.437376 0 0
6:15 pm 18:15 Cloudy 66 19 66 19 100 100 E 3 6 30.15 1021 5 8.04672 0 0
6:35 pm 18:35 Cloudy 66 19 66 19 100 100 E 12 19 30.15 1021 4 6.437376 0 0
6:55 pm 18:55 Cloudy 64 18 64 18 100 100 E 7 11 30.15 1021 2 3.218688 0 0
7:15 pm 19:15 Cloudy 64 18 64 18 100 100 E 7 11 30.15 1021 3 4.828032 0 0
7:35 pm 19:35 Cloudy 64 18 64 18 100 100 E 6 9 30.15 1021 10 16.09344 0 0
7:55 pm 19:55 Cloudy 64 18 64 18 100 100 E 5 7 30.15 1021 5 8.04672 0 0
8:15 pm 20:15 Cloudy 64 18 64 18 100 100 E 8 13 30.15 1021 3 4.828032 0 0
8:35 pm 20:35 Cloudy 64 18 64 18 100 100 ENE 7 11 30.15 1021 4 6.437376 0 0
8:55 pm 20:55 Cloudy 64 18 64 18 100 100 E 7 11 30.15 1021 5 8.04672 0 0
9:15 pm 21:15 Cloudy 64 18 64 18 100 100 ENE 10 17 30.15 1021 5 8.04672 0 0
9:55 pm 21:55 Cloudy 64 18 63 17 94 94 E 6 9 30.15 1021 7 11.265408 0 0
10:15 pm 22:15 Cloudy 63 17 63 17 100 100 ENE 5 7 30.15 1021 7 11.265408 0 0
10:35 pm 22:35 Cloudy 63 17 63 17 100 100 ENE 6 9 30.15 1021 5 8.04672 0 0
10:55 pm 22:55 Cloudy 63 17 63 17 100 100 ENE 10 17 30.15 1021 10 16.09344 0 0
11:15 pm 23:15 Cloudy 63 17 63 17 100 100 NE 8 13 30.15 1021 4 6.437376 0 0
11:55 pm 23:55 Cloudy 63 17 63 17 100 100 NE 6 9 30.12 1020 5 8.04672 0 0

Powered by AerisWeather